User: anonymous   Login
Location: Cicognara
(44.9500°N, 10.4667°E)
Time: 10:26:57
(UTC+00:00)
Language:

Cosmos 1703 - Orbit

View from above orbital plane
View from above orbital plane
View from above satellite
View from above satellite

Ground track
Ground track

The orbit data is extracted from the following two-line orbital elements,

1 16262U 85108A   21267.75766354  .00001264  00000-0  72161-4 0  9994
2 16262  82.4809 155.5208 0010291 313.3447  46.6925 15.11841335954567
Epoch (UTC): 24 September 2021 18:11:02
Eccentricity: 0.0010291
inclination: 82.4809°
perigee height: 523 km
apogee height: 538 km
right ascension of ascending node: 155.5208°
argument of perigee: 313.3447°
revolutions per day: 15.11841335
mean anomaly at epoch: 46.6925°
orbit number at epoch: 95456

The dashed part of the orbit path shows where the satellite is in the earth's shadow,  

DLR